| time (UTC) | temp F | wind direction | speed knots | gust knots | rain 1hr in | rain 24hr in | rain mn in | humidity % | barometer mb |
| 20260504050538 | 38 | 0 | 0.0 | 0.0 | 0.00 | 0.00 | 0.00 | 89 | 1011.5 |
| 20260504045542 | 38 | 0 | 0.0 | 0.0 | 0.00 | 0.00 | 0.00 | 89 | 1011.4 |
| 20260504045038 | 38 | 0 | 0.0 | 0.0 | 0.00 | 0.00 | 0.00 | 89 | 1011.5 |
| 20260504044559 | 38 | 0 | 0.0 | 0.0 | 0.00 | 0.00 | 0.00 | 88 | 1011.5 |
| 20260504044038 | 38 | 0 | 0.0 | 0.0 | 0.00 | 0.00 | 0.00 | 88 | 1011.4 |
| 20260504043539 | 38 | 0 | 0.0 | 0.0 | 0.00 | 0.00 | 0.00 | 88 | 1011.5 |
| 20260504043054 | 37 | 0 | 0.0 | 0.0 | 0.00 | 0.00 | 0.00 | 88 | 1011.4 |
| 20260504042536 | 37 | 0 | 0.0 | 0.0 | 0.00 | 0.00 | 0.00 | 87 | 1011.6 |
| 20260504042035 | 36 | 0 | 0.0 | 0.0 | 0.00 | 0.00 | 0.00 | 87 | 1011.6 |
| 20260504041550 | 36 | 0 | 0.0 | 1.7 | 0.00 | 0.00 | 0.00 | 86 | 1011.6 |
| 20260504041039 | 36 | 0 | 0.0 | 1.7 | 0.00 | 0.00 | 0.00 | 85 | 1011.4 |
| 20260504040541 | 36 | 20 | 0.0 | 1.7 | 0.00 | 0.00 | 0.00 | 85 | 1011.4 |
| 20260504040052 | 36 | 0 | 0.0 | 1.7 | 0.00 | 0.00 | 0.00 | 84 | 1011.3 |
| 20260504035539 | 36 | 0 | 0.0 | 1.7 | 0.00 | 0.00 | 0.00 | 84 | 1011.3 |
| 20260504035039 | 36 | 0 | 0.0 | 0.0 | 0.00 | 0.00 | 0.00 | 84 | 1011.3 |
| 20260504034554 | 36 | 0 | 0.0 | 0.0 | 0.00 | 0.00 | 0.00 | 83 | 1011.2 |
| 20260504034040 | 37 | 0 | 0.0 | 0.0 | 0.00 | 0.00 | 0.00 | 82 | 1011.2 |
| 20260504033538 | 37 | 0 | 0.0 | 0.0 | 0.00 | 0.00 | 0.00 | 82 | 1011.1 |
| 20260504033056 | 37 | 0 | 0.0 | 0.0 | 0.00 | 0.00 | 0.00 | 82 | 1011.1 |
| 20260504032539 | 37 | 0 | 0.0 | 0.9 | 0.00 | 0.00 | 0.00 | 82 | 1011.1 |
| 20260504032039 | 37 | 0 | 0.0 | 0.9 | 0.00 | 0.00 | 0.00 | 81 | 1011.1 |
| 20260504031551 | 37 | 0 | 0.0 | 0.0 | 0.00 | 0.00 | 0.00 | 81 | 1011.1 |
| 20260504031038 | 37 | 0 | 0.0 | 0.0 | 0.00 | 0.00 | 0.00 | 81 | 1011.0 |
| 20260504030542 | 37 | 0 | 0.0 | 0.0 | 0.00 | 0.00 | 0.00 | 81 | 1011.1 |
| 20260504030048 | 37 | 0 | 0.0 | 0.0 | 0.00 | 0.00 | 0.00 | 81 | 1011.0 |
| 20260504025539 | 38 | 0 | 0.0 | 0.0 | 0.00 | 0.00 | 0.00 | 81 | 1011.1 |
| 20260504025039 | 38 | 0 | 0.0 | 0.0 | 0.00 | 0.00 | 0.00 | 80 | 1011.1 |
| 20260504024550 | 38 | 0 | 0.0 | 0.0 | 0.00 | 0.00 | 0.00 | 80 | 1011.2 |
| 20260504024039 | 38 | 0 | 0.0 | 0.0 | 0.00 | 0.00 | 0.00 | 80 | 1011.1 |
| 20260504023539 | 38 | 0 | 0.0 | 0.0 | 0.00 | 0.00 | 0.00 | 80 | 1011.2 |
| 20260504023051 | 38 | 0 | 0.0 | 0.0 | 0.00 | 0.00 | 0.00 | 79 | 1011.1 |
| 20260504022537 | 39 | 0 | 0.0 | 0.0 | 0.00 | 0.00 | 0.00 | 79 | 1011.2 |
| 20260504022038 | 39 | 0 | 0.0 | 0.9 | 0.00 | 0.00 | 0.00 | 79 | 1011.1 |
| 20260504021553 | 39 | 0 | 0.0 | 0.9 | 0.00 | 0.00 | 0.00 | 79 | 1011.0 |
| 20260504021041 | 39 | 0 | 0.0 | 0.0 | 0.00 | 0.00 | 0.00 | 79 | 1011.1 |
| 20260504020541 | 39 | 0 | 0.0 | 0.0 | 0.00 | 0.00 | 0.00 | 77 | 1011.1 |
| 20260504020048 | 40 | 0 | 0.0 | 0.0 | 0.00 | 0.00 | 0.00 | 77 | 1011.1 |
| 20260504015536 | 40 | 0 | 0.0 | 0.0 | 0.00 | 0.00 | 0.00 | 77 | 1011.1 |
| 20260504015038 | 40 | 0 | 0.0 | 0.0 | 0.00 | 0.00 | 0.00 | 77 | 1011.1 |
| 20260504014550 | 40 | 0 | 0.0 | 0.0 | 0.00 | 0.00 | 0.00 | 77 | 1010.9 |
| 20260504014039 | 41 | 0 | 0.0 | 0.0 | 0.00 | 0.00 | 0.00 | 77 | 1010.9 |
| 20260504013535 | 41 | 0 | 0.0 | 0.0 | 0.00 | 0.00 | 0.00 | 76 | 1010.8 |
| 20260504013051 | 41 | 0 | 0.0 | 0.0 | 0.00 | 0.00 | 0.00 | 76 | 1010.8 |
| 20260504012542 | 41 | 0 | 0.0 | 0.0 | 0.00 | 0.00 | 0.00 | 75 | 1010.7 |
| 20260504012039 | 42 | 0 | 0.0 | 0.0 | 0.00 | 0.00 | 0.00 | 74 | 1010.6 |
| 20260504011552 | 42 | 0 | 0.0 | 0.0 | 0.00 | 0.00 | 0.00 | 73 | 1010.6 |
| 20260504011038 | 42 | 0 | 0.0 | 0.0 | 0.00 | 0.00 | 0.00 | 73 | 1010.5 |
| 20260504010539 | 43 | 0 | 0.0 | 0.0 | 0.00 | 0.00 | 0.00 | 71 | 1010.5 |
| 20260504010058 | 43 | 0 | 0.0 | 0.0 | 0.00 | 0.00 | 0.00 | 70 | 1010.4 |
| 20260504005540 | 43 | 0 | 0.0 | 0.0 | 0.00 | 0.00 | 0.00 | 70 | 1010.3 |
| 20260504005036 | 43 | 0 | 0.0 | 0.0 | 0.00 | 0.00 | 0.00 | 69 | 1010.2 |
| 20260504004550 | 43 | 0 | 0.0 | 0.0 | 0.00 | 0.00 | 0.00 | 68 | 1010.1 |
| 20260504004039 | 44 | 0 | 0.0 | 0.0 | 0.00 | 0.00 | 0.00 | 69 | 1010.1 |
| 20260504003543 | 44 | 0 | 0.0 | 0.0 | 0.00 | 0.00 | 0.00 | 69 | 1009.9 |
| 20260504003047 | 45 | 0 | 0.0 | 0.0 | 0.00 | 0.00 | 0.00 | 67 | 1009.8 |
| 20260504002539 | 45 | 0 | 0.0 | 0.0 | 0.00 | 0.00 | 0.00 | 67 | 1009.8 |
| 20260504002039 | 46 | 0 | 0.0 | 0.0 | 0.00 | 0.00 | 0.00 | 66 | 1009.8 |
| 20260504001607 | 46 | 0 | 0.0 | 0.0 | 0.00 | 0.00 | 0.00 | 65 | 1009.7 |
| 20260504001039 | 47 | 0 | 0.0 | 0.0 | 0.00 | 0.00 | 0.00 | 64 | 1009.7 |
| 20260504000540 | 47 | 0 | 0.0 | 0.9 | 0.00 | 0.00 | 0.00 | 62 | 1009.6 |
| 20260504000052 | 48 | 0 | 0.0 | 1.7 | 0.00 | 0.00 | 0.00 | 61 | 1009.5 |
| 20260503235540 | 48 | 20 | 0.0 | 1.7 | 0.00 | 0.00 | 0.00 | 62 | 1009.5 |
| 20260503235039 | 48 | 0 | 0.0 | 1.7 | 0.00 | 0.00 | 0.00 | 60 | 1009.3 |
| 20260503234550 | 49 | 0 | 0.0 | 2.6 | 0.00 | 0.00 | 0.00 | 60 | 1009.3 |
| 20260503234039 | 49 | 25 | 0.9 | 2.6 | 0.00 | 0.00 | 0.00 | 58 | 1009.2 |
| 20260503233538 | 49 | 25 | 0.9 | 2.6 | 0.00 | 0.00 | 0.00 | 58 | 1009.2 |
| 20260503233050 | 49 | 8 | 0.9 | 1.7 | 0.00 | 0.00 | 0.00 | 57 | 1009.0 |
| 20260503232541 | 49 | 357 | 0.0 | 2.6 | 0.00 | 0.00 | 0.00 | 60 | 1009.0 |
| 20260503232039 | 49 | 357 | 0.9 | 2.6 | 0.00 | 0.00 | 0.00 | 57 | 1008.9 |
| 20260503231550 | 50 | 247 | 0.0 | 2.6 | 0.00 | 0.00 | 0.00 | 61 | 1008.7 |
| 20260503231040 | 50 | 246 | 0.0 | 3.5 | 0.00 | 0.00 | 0.00 | 59 | 1008.5 |
| 20260503230535 | 50 | 0 | 0.0 | 3.5 | 0.00 | 0.00 | 0.00 | 56 | 1008.6 |
| 20260503230047 | 51 | 246 | 0.0 | 2.6 | 0.00 | 0.00 | 0.00 | 60 | 1008.5 |
| 20260503225539 | 51 | 0 | 0.0 | 2.6 | 0.00 | 0.00 | 0.00 | 57 | 1008.3 |
| 20260503225039 | 51 | 314 | 0.0 | 2.6 | 0.00 | 0.00 | 0.00 | 56 | 1008.3 |
| 20260503224547 | 51 | 16 | 0.9 | 2.6 | 0.00 | 0.00 | 0.00 | 56 | 1008.2 |
| 20260503224039 | 51 | 258 | 0.9 | 3.5 | 0.00 | 0.00 | 0.00 | 55 | 1008.1 |
| 20260503223542 | 52 | 0 | 0.9 | 3.5 | 0.00 | 0.00 | 0.00 | 55 | 1008.1 |
| 20260503223050 | 52 | 359 | 0.9 | 7.0 | 0.00 | 0.00 | 0.00 | 54 | 1008.1 |
| 20260503222537 | 52 | 345 | 1.7 | 7.0 | 0.00 | 0.00 | 0.00 | 54 | 1008.0 |
| 20260503222038 | 52 | 0 | 0.0 | 2.6 | 0.00 | 0.00 | 0.00 | 56 | 1007.9 |
| 20260503221551 | 52 | 0 | 0.0 | 3.5 | 0.00 | 0.00 | 0.00 | 55 | 1007.8 |
| 20260503221041 | 52 | 12 | 0.9 | 4.3 | 0.00 | 0.00 | 0.00 | 50 | 1007.8 |
| 20260503220539 | 52 | 89 | 1.7 | 4.3 | 0.00 | 0.00 | 0.00 | 52 | 1007.6 |
| 20260503220108 | 53 | 0 | 0.9 | 3.5 | 0.00 | 0.00 | 0.00 | 53 | 1007.7 |
| 20260503215539 | 53 | 4 | 0.9 | 3.5 | 0.00 | 0.00 | 0.00 | 54 | 1007.6 |
| 20260503215039 | 53 | 347 | 0.9 | 3.5 | 0.00 | 0.00 | 0.00 | 51 | 1007.6 |
| 20260503214547 | 53 | 340 | 0.9 | 3.5 | 0.00 | 0.00 | 0.00 | 54 | 1007.5 |
| 20260503214041 | 53 | 22 | 0.9 | 3.5 | 0.00 | 0.00 | 0.00 | 57 | 1007.4 |
| 20260503213539 | 53 | 333 | 0.9 | 2.6 | 0.00 | 0.00 | 0.00 | 54 | 1007.3 |
| 20260503213050 | 53 | 333 | 0.9 | 3.5 | 0.00 | 0.00 | 0.00 | 56 | 1007.4 |
| 20260503212539 | 53 | 0 | 0.9 | 3.5 | 0.00 | 0.00 | 0.00 | 53 | 1007.3 |
| 20260503212041 | 53 | 330 | 0.9 | 3.5 | 0.00 | 0.00 | 0.00 | 52 | 1007.2 |
| 20260503211601 | 54 | 343 | 0.9 | 3.5 | 0.00 | 0.00 | 0.00 | 53 | 1007.2 |
| 20260503211042 | 54 | 326 | 0.9 | 3.5 | 0.00 | 0.00 | 0.00 | 53 | 1007.0 |
| 20260503210539 | 54 | 51 | 0.9 | 3.5 | 0.00 | 0.00 | 0.00 | 50 | 1007.0 |
| 20260503210046 | 55 | 65 | 0.9 | 3.5 | 0.00 | 0.00 | 0.00 | 54 | 1006.9 |
| 20260503205539 | 55 | 353 | 0.9 | 4.3 | 0.00 | 0.00 | 0.00 | 50 | 1007.0 |
| 20260503205039 | 55 | 14 | 0.9 | 4.3 | 0.00 | 0.00 | 0.00 | 53 | 1006.8 |
| 20260503204552 | 55 | 3 | 0.9 | 2.6 | 0.00 | 0.00 | 0.00 | 54 | 1006.7 |
| 20260503204038 | 55 | 351 | 0.9 | 2.6 | 0.00 | 0.00 | 0.00 | 50 | 1006.6 |
| 20260503203535 | 56 | 108 | 0.9 | 5.2 | 0.00 | 0.00 | 0.00 | 51 | 1006.6 |
| 20260503203049 | 56 | 353 | 1.7 | 5.2 | 0.00 | 0.00 | 0.00 | 50 | 1006.5 |
| 20260503202539 | 56 | 353 | 1.7 | 3.5 | 0.00 | 0.00 | 0.00 | 50 | 1006.5 |
| 20260503202039 | 56 | 359 | 0.9 | 3.5 | 0.00 | 0.00 | 0.00 | 52 | 1006.4 |
| 20260503201549 | 56 | 316 | 0.9 | 3.5 | 0.00 | 0.00 | 0.00 | 55 | 1006.3 |
| 20260503201039 | 55 | 331 | 0.9 | 3.5 | 0.00 | 0.00 | 0.00 | 53 | 1006.2 |
| 20260503200542 | 55 | 59 | 1.7 | 3.5 | 0.00 | 0.00 | 0.00 | 52 | 1006.1 |
| 20260503200049 | 53 | 293 | 0.9 | 3.5 | 0.00 | 0.00 | 0.00 | 57 | 1006.2 |
| 20260503195539 | 53 | 349 | 0.9 | 3.5 | 0.00 | 0.00 | 0.00 | 58 | 1006.2 |
| 20260503195039 | 52 | 359 | 0.9 | 6.1 | 0.00 | 0.00 | 0.00 | 57 | 1006.3 |
| 20260503194551 | 52 | 351 | 0.9 | 6.1 | 0.00 | 0.00 | 0.00 | 59 | 1006.2 |
| 20260503194040 | 52 | 316 | 0.9 | 2.6 | 0.00 | 0.00 | 0.00 | 59 | 1006.1 |
| 20260503193539 | 53 | 328 | 0.9 | 2.6 | 0.00 | 0.00 | 0.00 | 57 | 1006.2 |
| 20260503193054 | 53 | 328 | 0.9 | 3.5 | 0.00 | 0.00 | 0.00 | 53 | 1006.1 |
| 20260503192539 | 54 | 304 | 0.9 | 3.5 | 0.00 | 0.00 | 0.00 | 57 | 1006.1 |
| 20260503192043 | 54 | 293 | 0.9 | 2.6 | 0.00 | 0.00 | 0.00 | 55 | 1006.2 |
| 20260503191550 | 53 | 276 | 0.9 | 2.6 | 0.00 | 0.00 | 0.00 | 58 | 1006.2 |
| 20260503191039 | 53 | 313 | 0.0 | 3.5 | 0.00 | 0.00 | 0.00 | 57 | 1006.2 |
| 20260503190540 | 53 | 75 | 0.9 | 3.5 | 0.00 | 0.00 | 0.00 | 58 | 1006.2 |
| 20260503190046 | 54 | 258 | 0.9 | 3.5 | 0.00 | 0.00 | 0.00 | 57 | 1006.4 |
| 20260503185539 | 54 | 308 | 0.9 | 3.5 | 0.00 | 0.00 | 0.00 | 56 | 1006.4 |
| 20260503185039 | 54 | 325 | 0.9 | 3.5 | 0.00 | 0.00 | 0.00 | 60 | 1006.3 |
| 20260503184557 | 54 | 207 | 0.9 | 3.5 | 0.00 | 0.00 | 0.00 | 61 | 1006.2 |
| 20260503184039 | 54 | 327 | 0.9 | 3.5 | 0.00 | 0.00 | 0.00 | 58 | 1006.4 |
| 20260503183538 | 54 | 8 | 1.7 | 5.2 | 0.00 | 0.00 | 0.00 | 56 | 1006.4 |
| 20260503183054 | 55 | 0 | 1.7 | 5.2 | 0.00 | 0.00 | 0.00 | 55 | 1006.4 |
| 20260503182539 | 55 | 109 | 0.9 | 5.2 | 0.00 | 0.00 | 0.00 | 61 | 1006.4 |
| 20260503182043 | 54 | 297 | 0.9 | 6.1 | 0.00 | 0.00 | 0.00 | 60 | 1006.5 |
| 20260503181620 | 54 | 349 | 0.9 | 6.1 | 0.00 | 0.00 | 0.00 | 58 | 1006.4 |
| 20260503181039 | 54 | 14 | 0.9 | 5.2 | 0.00 | 0.00 | 0.00 | 60 | 1006.5 |
| 20260503180539 | 55 | 302 | 1.7 | 7.8 | 0.00 | 0.00 | 0.00 | 57 | 1006.5 |
| 20260503180124 | 55 | 230 | 0.9 | 7.8 | 0.00 | 0.00 | 0.00 | 60 | 1006.5 |
| 20260503175539 | 54 | 331 | 0.9 | 6.1 | 0.00 | 0.00 | 0.00 | 60 | 1006.3 |
| 20260503175039 | 54 | 337 | 0.9 | 6.1 | 0.00 | 0.00 | 0.00 | 61 | 1006.4 |
| 20260503174556 | 54 | 291 | 0.9 | 6.1 | 0.00 | 0.00 | 0.00 | 61 | 1006.4 |
| 20260503174039 | 54 | 314 | 0.9 | 5.2 | 0.00 | 0.00 | 0.00 | 61 | 1006.4 |
| 20260503173539 | 54 | 206 | 0.9 | 5.2 | 0.00 | 0.00 | 0.00 | 64 | 1006.4 |
| 20260503173056 | 53 | 315 | 0.9 | 5.2 | 0.00 | 0.00 | 0.00 | 66 | 1006.5 |
| 20260503172538 | 53 | 8 | 1.7 | 5.2 | 0.00 | 0.00 | 0.00 | 65 | 1006.5 |
| 20260503172038 | 52 | 345 | 0.9 | 4.3 | 0.00 | 0.00 | 0.00 | 69 | 1006.4 |
| 20260503171549 | 52 | 0 | 0.9 | 4.3 | 0.00 | 0.00 | 0.00 | 70 | 1006.4 |
| 20260503171038 | 52 | 309 | 0.9 | 3.5 | 0.00 | 0.00 | 0.00 | 71 | 1006.4 |
| 20260503170540 | 52 | 328 | 0.9 | 3.5 | 0.00 | 0.00 | 0.00 | 68 | 1006.5 |
| 20260503150539 | 51 | 296 | 0.9 | 3.5 | 0.00 | 0.00 | 0.00 | 72 | 1005.8 |
| 20260503131038 | 52 | 358 | 0.9 | 2.6 | 0.00 | 0.00 | 0.00 | 75 | 1005.5 |
| 20260503130538 | 52 | 28 | 0.9 | 2.6 | 0.00 | 0.00 | 0.00 | 74 | 1005.6 |
| 20260503120105 | 47 | 75 | 0.9 | 3.5 | 0.00 | 0.00 | 0.00 | 84 | 1006.0 |
| 20260503110542 | 41 | 0 | 0.0 | 2.6 | 0.00 | 0.00 | 0.00 | 91 | 1006.3 |
| 20260503100106 | 42 | 0 | 0.0 | 0.0 | 0.00 | 0.00 | 0.00 | 92 | 1006.4 |
| 20260503081546 | 42 | 0 | 0.0 | 1.7 | 0.00 | 0.00 | 0.00 | 92 | 1007.0 |
| 20260503081039 | 42 | 0 | 0.0 | 1.7 | 0.00 | 0.00 | 0.00 | 92 | 1007.0 |
| 20260503080541 | 42 | 0 | 0.0 | 1.7 | 0.00 | 0.00 | 0.00 | 92 | 1006.9 |
| 20260503072542 | 43 | 0 | 0.0 | 0.9 | 0.00 | 0.00 | 0.00 | 93 | 1007.5 |
| 20260503072039 | 43 | 0 | 0.0 | 0.9 | 0.00 | 0.00 | 0.00 | 92 | 1007.7 |
| 20260503071555 | 43 | 0 | 0.0 | 0.0 | 0.00 | 0.00 | 0.00 | 93 | 1007.5 |
| 20260503071043 | 44 | 0 | 0.0 | 0.9 | 0.00 | 0.00 | 0.00 | 93 | 1007.5 |
| 20260503070539 | 44 | 0 | 0.0 | 1.7 | 0.00 | 0.00 | 0.00 | 93 | 1007.6 |
| 20260503060112 | 47 | 0 | 0.0 | 0.0 | 0.00 | 0.00 | 0.00 | 93 | 1008.4 |